カタログに戻る

SL-14 R/B

運用中PO
NORAD 33505·ROCKET BODY·🇷🇺 Russia

打ち上げ Jan 30, 2009 から Plesetsk Cosmodrome

Loading…

次のパス (今後24時間)

TLE

最新Source: Space-Track

元期: Sep 14, 2026, 14:32 UTC

1 33505U 09003B   26257.60594036  .00001339  00000-0  62287-4 0  9998
2 33505  82.3827 115.5027 0022514  80.3678 280.0098 15.18857133971001

AllMySatでSL-14 R/Bをリアルタイム追跡

Download on the App Store